Weather History for Artesia, NM

Change the Weather History Date:

Monday, March 24, 2014

  Actual Average Record
Temperature  
Mean Temperature 52 °F -  
Max Temperature 75 °F 72 °F 87 °F (1998)
Min Temperature 30 °F 32 °F 3 °F (1999)
Degree Days  
Heating Degree Days 12    
Growing Degree Days 2 (Base 50)    
Moisture  
Dew Point 20 °F    
Average Humidity 34    
Maximum Humidity 60    
Minimum Humidity 11    
Precipitation  
Precipitation 0.00 in - - ()
Sea Level Pressure  
Sea Level Pressure 30.10 in    
Wind  
Wind Speed 6 mph (SE)    
Max Wind Speed 17 mph    
Max Gust Speed 25 mph    
Visibility 10 miles    
Events      
Averages and records for this station are not official NWS values.
T = Trace of Precipitation, MM = Missing Value Source: NWS Daily Summary

Daily Weather History Graph

Daily Weather History Graph

Search for Another Location

Airport:

Trip Planner

Search our weather history database for the weather conditions in past years. The results will help you decide how hot, cold, wet, or windy it might be!

Date:

Astronomy

Mar. 24, 2014 Rise Set
Actual Time 6:56 AM MDT 7:12 PM MDT
Civil Twilight 6:31 AM MDT 7:37 PM MDT
Nautical Twilight 6:02 AM MDT 8:05 PM MDT
Astronomical Twilight 5:33 AM MDT 8:35 PM MDT
Moon 2:11 AM MDT (3/24) 12:57 PM MDT (3/24)
Length of Visible Light 13h 05m
Length of Day
12h 16m
Last Quarter, 42% of the Moon is Illuminated
Mar 24
Last Quarter
Mar 30
New
Apr 7
First Quarter
Apr 15
Full
Apr 22
Last Quarter

Hourly Weather History & Observations

Time (MDT) Temp. Windchill Dew Point Humidity Pressure Visibility Wind Dir Wind Speed Gust Speed Precip Events Conditions
12:15 AM 39.2 °F 33.0 °F 23.0 °F 52% 30.16 in 10.0 mi South 9.2 mph - N/A   Clear
12:35 AM 39.2 °F 33.0 °F 23.0 °F 52% 30.16 in 10.0 mi SSW 9.2 mph - N/A   Clear
12:55 AM 39.2 °F 33.0 °F 23.0 °F 52% 30.15 in 10.0 mi SW 9.2 mph - N/A   Clear
1:15 AM 37.4 °F 30.8 °F 21.2 °F 52% 30.15 in 10.0 mi SW 9.2 mph - N/A   Clear
1:35 AM 37.4 °F 30.8 °F 21.2 °F 52% 30.15 in 10.0 mi SW 9.2 mph - N/A   Clear
1:55 AM 37.4 °F 31.4 °F 23.0 °F 56% 30.14 in 10.0 mi SSW 8.1 mph - N/A   Clear
2:15 AM 37.4 °F 31.4 °F 23.0 °F 56% 30.13 in 10.0 mi SSW 8.1 mph - N/A   Clear
2:35 AM 35.6 °F 30.7 °F 23.0 °F 60% 30.12 in 10.0 mi SW 5.8 mph - N/A   Clear
2:55 AM 35.6 °F - 23.0 °F 60% 30.12 in 10.0 mi Calm Calm - N/A   Clear
3:15 AM 35.6 °F 32.8 °F 21.2 °F 56% 30.11 in 10.0 mi SSW 3.5 mph - N/A   Clear
3:35 AM 33.8 °F - 21.2 °F 60% 30.10 in 10.0 mi Calm Calm - N/A   Clear
3:55 AM 35.6 °F - 23.0 °F 60% 30.09 in 10.0 mi Calm Calm - N/A   Clear
4:15 AM 33.8 °F - 19.4 °F 56% 30.09 in 10.0 mi Calm Calm - N/A   Clear
4:35 AM 33.8 °F 30.8 °F 19.4 °F 56% 30.10 in 10.0 mi NNW 3.5 mph - N/A   Clear
4:55 AM 32.0 °F 26.4 °F 17.6 °F 55% 30.10 in 10.0 mi NNW 5.8 mph - N/A   Clear
5:15 AM 32.0 °F 28.7 °F 17.6 °F 55% 30.10 in 10.0 mi North 3.5 mph - N/A   Clear
5:35 AM 32.0 °F 27.5 °F 19.4 °F 60% 30.10 in 10.0 mi NW 4.6 mph - N/A   Clear
5:55 AM 32.0 °F 28.7 °F 19.4 °F 60% 30.10 in 10.0 mi WNW 3.5 mph - N/A   Clear
6:15 AM 32.0 °F 27.5 °F 17.6 °F 55% 30.11 in 10.0 mi WNW 4.6 mph - N/A   Clear
6:35 AM 30.2 °F 24.3 °F 17.6 °F 60% 30.12 in 10.0 mi NNW 5.8 mph - N/A   Clear
6:55 AM 32.0 °F 24.8 °F 17.6 °F 55% 30.13 in 10.0 mi NNW 8.1 mph - N/A   Clear
7:15 AM 32.0 °F 25.6 °F 19.4 °F 60% 30.13 in 10.0 mi NNW 6.9 mph - N/A   Clear
7:35 AM 32.0 °F 27.5 °F 19.4 °F 60% 30.14 in 10.0 mi North 4.6 mph - N/A   Clear
7:55 AM 35.6 °F - 21.2 °F 56% 30.14 in 10.0 mi Calm Calm - N/A   Clear
8:15 AM 37.4 °F 34.9 °F 23.0 °F 56% 30.14 in 10.0 mi NW 3.5 mph - N/A   Clear
8:35 AM 39.2 °F - 23.0 °F 52% 30.14 in 10.0 mi Calm Calm - N/A   Clear
8:55 AM 41.0 °F - 23.0 °F 49% 30.14 in 10.0 mi Calm Calm - N/A   Clear
9:15 AM 42.8 °F - 24.8 °F 49% 30.14 in 10.0 mi Calm Calm - N/A   Clear
9:35 AM 46.4 °F 44.3 °F 24.8 °F 43% 30.14 in 10.0 mi SSW 4.6 mph - N/A   Clear
9:55 AM 48.2 °F - 24.8 °F 40% 30.14 in 10.0 mi South 3.5 mph - N/A   Clear
10:15 AM 50.0 °F - 24.8 °F 37% 30.14 in 10.0 mi Calm Calm - N/A   Clear
10:35 AM 51.8 °F - 24.8 °F 35% 30.14 in 10.0 mi NE 3.5 mph - N/A   Clear
10:55 AM 53.6 °F - 26.6 °F 35% 30.13 in 10.0 mi Calm Calm - N/A   Clear
11:15 AM 55.4 °F - 26.6 °F 33% 30.13 in 10.0 mi SE 4.6 mph - N/A   Clear
11:35 AM 57.2 °F - 26.6 °F 31% 30.12 in 10.0 mi East 3.5 mph - N/A   Clear
12:15 PM 62.6 °F - 26.6 °F 26% 30.11 in 10.0 mi Calm Calm - N/A   Clear
12:35 PM 64.4 °F - 24.8 °F 22% 30.10 in 10.0 mi ESE 4.6 mph - N/A   Clear
12:55 PM 66.2 °F - 24.8 °F 21% 30.09 in 10.0 mi East 3.5 mph - N/A   Clear
1:15 PM 68.0 °F - 23.0 °F 18% 30.08 in 10.0 mi ENE 6.9 mph - N/A   Clear
1:35 PM 69.8 °F - 19.4 °F 15% 30.07 in 10.0 mi East 8.1 mph - N/A   Clear
1:55 PM 71.6 °F - 17.6 °F 13% 30.06 in 10.0 mi East 9.2 mph - N/A   Clear
2:15 PM 73.4 °F - 17.6 °F 12% 30.05 in 10.0 mi ENE 8.1 mph - N/A   Clear
2:35 PM 73.4 °F - 15.8 °F 11% 30.04 in 10.0 mi North 6.9 mph - N/A   Clear
2:55 PM 73.4 °F - 15.8 °F 11% 30.03 in 10.0 mi NE 6.9 mph - N/A   Clear
3:15 PM 73.4 °F - 15.8 °F 11% 30.03 in 10.0 mi West 3.5 mph - N/A   Clear
3:35 PM 73.4 °F - 15.8 °F 11% 30.02 in 10.0 mi East 5.8 mph - N/A   Clear
3:55 PM 75.2 °F - 15.8 °F 11% 30.02 in 10.0 mi North 3.5 mph - N/A   Clear
4:15 PM 75.2 °F - 15.8 °F 11% 30.02 in 10.0 mi ENE 8.1 mph - N/A   Clear
4:35 PM 73.4 °F - 15.8 °F 11% 30.02 in 10.0 mi Calm Calm - N/A   Clear
4:55 PM 75.2 °F - 15.8 °F 11% 30.01 in 10.0 mi East 4.6 mph - N/A   Clear
5:15 PM 75.2 °F - 15.8 °F 11% 30.01 in 10.0 mi SSE 9.2 mph - N/A   Clear
5:35 PM 73.4 °F - 15.8 °F 11% 30.01 in 10.0 mi SSE 4.6 mph - N/A   Clear
5:55 PM 73.4 °F - 15.8 °F 11% 30.02 in 10.0 mi South 9.2 mph - N/A   Clear
6:15 PM 73.4 °F - 15.8 °F 11% 30.02 in 10.0 mi SSE 6.9 mph - N/A   Clear
6:35 PM 73.4 °F - 15.8 °F 11% 30.02 in 10.0 mi SE 6.9 mph - N/A   Clear
6:55 PM 69.8 °F - 15.8 °F 13% 30.03 in 10.0 mi SE 6.9 mph - N/A   Clear
7:15 PM 66.2 °F - 15.8 °F 14% 30.03 in 10.0 mi SSE 8.1 mph - N/A   Clear
7:35 PM 64.4 °F - 15.8 °F 15% 30.03 in 10.0 mi SSE 6.9 mph - N/A   Clear
7:55 PM 60.8 °F - 14.0 °F 16% 30.04 in 10.0 mi SSE 5.8 mph - N/A   Clear
8:15 PM 62.6 °F - 15.8 °F 16% 30.05 in 10.0 mi South 6.9 mph - N/A   Clear
8:35 PM 59.0 °F - 14.0 °F 17% 30.05 in 10.0 mi South 11.5 mph - N/A   Clear
8:55 PM 59.0 °F - 15.8 °F 19% 30.08 in 10.0 mi East 8.1 mph - N/A   Clear
9:15 PM 62.6 °F - 19.4 °F 19% 30.09 in 10.0 mi ESE 13.8 mph 19.6 mph N/A   Clear
9:35 PM 62.6 °F - 19.4 °F 19% 30.11 in 10.0 mi ESE 15.0 mph 25.3 mph N/A   Clear
9:55 PM 62.6 °F - 19.4 °F 19% 30.12 in 10.0 mi ESE 11.5 mph 20.7 mph N/A   Clear
10:15 PM 60.8 °F - 19.4 °F 20% 30.13 in 10.0 mi ESE 13.8 mph 21.9 mph N/A   Clear
10:35 PM 59.0 °F - 19.4 °F 22% 30.13 in 10.0 mi ESE 11.5 mph 18.4 mph N/A   Clear
10:55 PM 59.0 °F - 19.4 °F 22% 30.15 in 10.0 mi ESE 17.3 mph - N/A   Clear
11:15 PM 57.2 °F - 19.4 °F 23% 30.15 in 10.0 mi ESE 16.1 mph 21.9 mph N/A   Clear
11:35 PM 55.4 °F - 21.2 °F 26% 30.18 in 10.0 mi East 5.8 mph - N/A   Clear
11:55 PM 55.4 °F - 19.4 °F 25% 30.20 in 10.0 mi East 5.8 mph - N/A   Clear